Location: Bremen
(53.0793°N, 8.8017°E)
Time: 21:29:02
(UTC+01:00)

Tiros 1 - Pass Details

Date: 11 December 2021
Orbit: 629 x 664 km, 48.4° (Epoch: 18 January)

Event Time Altitude Azimuth Distance (km) Brightness Sun altitude
Rises 17:42:07 0° 242° (WSW) 2,913 12.5 -13.1°
Reaches altitude 10° 17:44:31 10° 235° (SW) 2,010 11.0 -13.4°
Maximum altitude 17:48:50 41° 166° (SSE) 930 8.0 -14.0°
Enters shadow 17:51:54 18° 104° (ESE) 1,569 8.6 -14.5°
